Location: Koslow
(50.3020°N, 18.5663°E)
Time: 04:30:21
(UTC+00:00)

STARLINK-1357 - Pass Details

Date: 21 June 2021
Orbit: 546 x 548 km, 53.1° (Epoch: 03 August)

Event Time Altitude Azimuth Distance (km) Brightness Sun altitude
Exits shadow 23:34:44 - 130° (SE) 1,922 6.1 -15.5°
Enters shadow 00:35:37 -68° 240° (WSW) 12,373 10.4 -12.5°
Maximum altitude 01:13:32 40° 145° (SE) 815 4.3 -9.5°
